sat.trackr.live / text

‹ back to catalog

STARLINK-33699

NORAD 63328 · 2025-057X

PAYLOAD ACTIVE UNKNOWN

§ Identity

Operator
Country
US
Launch date
2025-03-18
Launch site
AFETR
Launch vehicle
Mass (kg)
RCS (m²)

Purposes: comms

External: N2YO · Heavens-Above · Gunter

§ Orbital elements

Epoch: 2026-05-25T04:03:21.868704Z

Period
94.27 min
Inclination
43.0004°
Eccentricity
0.0001519
Mean motion
15.27584666 rev/d
Perigee alt
482.0 km
Apogee alt
484.1 km
Semi-major
6,861.2 km
B*
4.8482e-4
RAAN
311.1719°
Arg perigee
272.6475°
Mean anomaly
87.4202°
Rev number
6,752

§ Raw data

STARLINK-336991 63328U 25057X   26145.16900311  .00013105  00000+0  48482-3 0  99982 63328  43.0004 311.1719 0001519 272.6475  87.4202 15.27584666 67520

JSON: /api/v1/satellites/63328 · /tle

For live sub-satellite position, see the globe view (requires WebGL).

§ Visibility from observer

Set your observer location to see the next 7 days of passes ≥ 10°. The values pass through the URL so the page stays shareable.

No JS? Fill the form by hand. The geolocation button needs JavaScript.